Simultaneous Nadir Overpasses (SNOs) Predictions

Prediction of SNOs between METOP-C and LANDSAT-8 Satellite Orbit:

Table of predicted SNOs for the next 14.0 days since TLE Epoch: 8/19/2023
Index Date (METOP-C) Time (METOP-C) Lat,Lon (METOP-C) SZA (METOP-C ) Date (LANDSAT-8) Time (LANDSAT-8) Lat,Lon (LANDSAT-8) SZA (LANDSAT-8 ) Distance(km) Time Diff (sec)
1 08/21/2023 01:44:53 -81.19, 14.75 108.94 08/21/2023 01:45:14 -81.20, 14.89 108.92 2.54 21
2 08/21/2023 02:35:32 81.22,-177.09 71.18 08/21/2023 02:34:39 81.22,-177.00 71.17 1.55 53
3 08/23/2023 21:19:12 -81.20, 81.49 107.94 08/23/2023 21:19:30 -81.20, 81.42 107.94 1.31 18
4 08/23/2023 22:09:51 81.23,-110.32 72.18 08/23/2023 22:08:55 81.23,-110.51 72.14 3.14 56
5 08/26/2023 16:53:32 -81.20, 147.79 106.97 08/26/2023 16:53:46 -81.20, 147.75 106.98 0.94 14
6 08/26/2023 17:44:11 81.23, -44.02 73.15 08/26/2023 17:43:11 81.22, -44.20 73.10 3.28 60
7 08/29/2023 12:27:50 -81.21,-145.60 105.94 08/29/2023 12:28:00 -81.20,-145.74 105.96 2.48 10
8 08/29/2023 13:18:30 81.22, 22.22 74.14 08/29/2023 13:17:25 81.22, 22.28 74.12 1.10 65
9 09/01/2023 08:02:09 -81.21, -79.06 104.90 09/01/2023 08:02:14 -81.21, -79.05 104.89 0.40 5



Historial Predications of SNOs between METOP-C and LANDSAT-8
